Stations météo

réclame
Mon MeteoGroup
Cap-de-la Heve, France (7028): Température de l'air & dewpoint: 17.10.2017 17:00:00 - 23.10.2017 17:00:00 (CEST)Cap-de-la Heve, France (7028): Température de l'air 5cm: 17.10.2017 17:00:00 - 23.10.2017 17:00:00 (CEST)Cap-de-la Heve, France (7028): Vitesse du vent & gusts: 17.10.2017 17:00:00 - 23.10.2017 17:00:00 (CEST)Cap-de-la Heve, France (7028): Direction du vent: 17.10.2017 17:00:00 - 23.10.2017 17:00:00 (CEST)Cap-de-la Heve, France (7028): reduced air pressure: 17.10.2017 17:00:00 - 23.10.2017 17:00:00 (CEST)Cap-de-la Heve, France (7028): visibility: 17.10.2017 17:00:00 - 23.10.2017 17:00:00 (CEST)Cap-de-la Heve, France (7028): Quantités de précipitations: 17.10.2017 17:00:00 - 23.10.2017 17:00:00 (CEST)
Date & Time tt [°C] td [°C] tt 5cm [°C] ff [km/h] ff [knt] fx [km/h] fx [knt] dd ppp [hPa] vv [km] rr [mm]
23.10.2017 17:00:00 14,1 13,6 13,7 16 8 45 25 SW 1020,3 0,9 0,4
23.10.2017 16:00:00 13,7 13,2 13,4 13 7 41 22 SW 1020,6 - 0,6
23.10.2017 15:00:00 13,4 12,8 13,1 16 8 39 21 SW 1020,8 - 0,0
23.10.2017 14:00:00 13,0 12,4 12,5 21 11 45 24 SSW 1021,1 20 0,2
23.10.2017 13:00:00 12,7 11,8 12,1 16 9 46 25 SW 1021,3 - 0,0
23.10.2017 12:00:00 12,2 11,1 11,8 15 8 44 24 SW 1021,5 - 0,0
23.10.2017 11:00:00 12,0 11,1 11,5 14 7 42 23 SSE 1021,8 6 0,4
23.10.2017 10:00:00 11,9 10,6 11,4 14 8 52 28 SSW 1021,8 - 0,2
23.10.2017 09:00:00 12,0 10,6 11,5 14 8 50 27 SW 1021,4 - 0,0
23.10.2017 08:00:00 12,3 10,7 12,2 16 9 49 27 SSW 1021,6 20 0,0
23.10.2017 07:00:00 12,4 10,8 12,3 23 12 50 27 WSW 1021,6 - 0,0
23.10.2017 06:00:00 12,6 10,8 12,3 19 11 53 28 SW 1021,4 - 0,0
23.10.2017 05:00:00 13,3 10,1 12,5 36 19 54 29 W 1021,3 25 0,0
23.10.2017 04:00:00 13,0 10,2 12,2 31 17 49 26 W 1021,2 - 0,0
23.10.2017 03:00:00 12,9 9,3 11,2 17 9 41 22 WNW 1021,4 - 0,0
23.10.2017 02:00:00 12,0 10,7 11,3 16 8 53 28 WNW 1021,6 25 0,6
23.10.2017 01:00:00 12,6 9,6 12,0 26 14 58 31 WNW 1021,4 - 0,0
23.10.2017 00:00:00 13,4 8,9 12,3 28 15 58 32 NW 1021,6 - 0,0
22.10.2017 23:00:00 13,3 10,1 12,0 20 11 63 34 WNW 1021,1 15 0,0
22.10.2017 22:00:00 12,8 9,6 11,7 24 13 69 37 WNW 1020,5 - 0,0
22.10.2017 21:00:00 12,8 10,2 11,7 34 19 71 38 WNW 1020,0 - 0,0
22.10.2017 20:00:00 12,9 9,2 11,5 26 14 79 43 WNW 1019,6 15 0,0
22.10.2017 19:00:00 12,8 9,2 10,9 26 14 71 38 WNW 1019,0 - 0,4
22.10.2017 18:00:00 12,0 10,1 11,1 21 12 72 39 WNW 1019,2 - 0,6
22.10.2017 17:00:00 12,0 9,7 11,0 29 16 77 42 WNW 1018,6 8 0,8
22.10.2017 16:00:00 11,6 8,4 11,0 27 14 58 32 NW 1018,9 - 0,0
22.10.2017 15:00:00 11,2 7,1 10,7 31 17 73 39 NW 1018,9 - 0,0
22.10.2017 14:00:00 13,0 6,8 12,6 29 16 63 34 NW 1018,2 10 0,0
22.10.2017 13:00:00 12,4 5,8 11,4 26 14 58 31 NW 1017,8 - 0,0
22.10.2017 12:00:00 11,6 6,5 8,8 28 15 65 35 WNW 1017,3 - 0,0
22.10.2017 11:00:00 10,3 7,7 8,3 22 12 75 41 WNW 1017,1 6 1,0
22.10.2017 10:00:00 9,8 7,0 8,4 35 19 87 47 W 1016,6 - 3,2
22.10.2017 09:00:00 11,3 8,3 9,4 39 21 80 43 WNW 1015,4 - 0,7
22.10.2017 08:00:00 10,4 8,0 8,4 33 18 102 55 WNW 1015,0 - 2,8
22.10.2017 07:00:00 10,8 8,2 9,1 22 12 91 49 WNW 1014,5 - 1,2
22.10.2017 06:00:00 11,7 8,9 8,8 59 32 89 48 W 1012,9 - 2,8
22.10.2017 05:00:00 11,1 8,0 9,0 47 26 94 51 W 1012,6 8 3,9
22.10.2017 04:00:00 11,6 9,2 10,4 36 19 94 51 SW 1011,8 - 0,2
22.10.2017 03:00:00 11,9 9,5 11,4 34 18 89 48 SW 1012,3 - 0,0
22.10.2017 02:00:00 11,9 9,6 10,5 36 19 86 46 SW 1012,0 8 0,0
22.10.2017 01:00:00 11,4 9,5 10,3 40 22 106 57 SW 1011,6 - 0,2
22.10.2017 00:00:00 11,4 10,0 10,2 43 23 98 53 SW 1011,2 - 0,4
21.10.2017 23:00:00 11,4 9,3 10,2 36 19 96 52 SW 1010,9 6 0,2
21.10.2017 22:00:00 11,7 8,5 11,4 30 16 89 48 S 1010,8 - 0,0
21.10.2017 21:00:00 11,9 8,4 10,4 35 19 97 53 SW 1011,2 - 0,0
21.10.2017 20:00:00 12,7 8,0 12,2 39 21 91 49 SW 1011,0 20 0,0
21.10.2017 19:00:00 12,6 7,7 11,3 41 22 93 50 SW 1010,1 - 0,0
21.10.2017 18:00:00 12,3 8,9 11,7 55 30 113 61 W 1010,5 - 0,2
21.10.2017 17:00:00 15,1 8,3 15,3 38 20 91 49 SW 1009,8 20 0,0
21.10.2017 16:00:00 15,5 7,5 15,5 36 19 82 44 WSW 1009,5 - 0,0
21.10.2017 15:00:00 15,3 7,6 15,6 36 20 86 46 SW 1009,6 - 0,0
21.10.2017 14:00:00 15,6 8,8 15,1 26 14 90 49 SSW 1009,3 15 0,0
21.10.2017 13:00:00 15,3 8,5 15,2 32 17 94 51 SW 1009,3 - 0,0
21.10.2017 12:00:00 14,9 8,8 15,7 25 14 89 48 SSW 1009,4 - 0,0
21.10.2017 11:00:00 14,5 9,9 14,9 21 11 70 38 E 1009,4 14 0,0
21.10.2017 10:00:00 14,2 10,2 13,8 24 13 86 47 SSW 1009,1 - 0,0
21.10.2017 09:00:00 14,1 10,1 13,4 26 14 79 43 SSW 1008,4 - 0,0
21.10.2017 08:00:00 14,1 11,1 13,6 22 12 72 39 SW 1008,2 15 0,0
21.10.2017 07:00:00 14,4 11,2 13,9 25 13 72 39 SSW 1007,8 - 0,0
21.10.2017 06:00:00 14,3 12,3 12,7 19 11 57 31 SW 1007,4 - 0,2
21.10.2017 05:00:00 13,7 11,9 12,7 20 11 72 39 S 1007,2 - 0,4
21.10.2017 04:00:00 14,4 12,1 13,2 34 19 68 37 WSW 1007,2 - 0,6
21.10.2017 03:00:00 15,7 12,4 15,1 42 23 65 35 S 1007,0 - 0,0
21.10.2017 02:00:00 15,3 11,7 14,5 39 21 63 34 S 1007,3 16 0,0
21.10.2017 01:00:00 14,9 11,1 14,5 44 24 67 36 S 1008,4 - 0,0
21.10.2017 00:00:00 14,7 10,1 14,2 49 27 72 39 S 1009,1 - 0,0
20.10.2017 23:00:00 14,4 9,8 13,3 28 15 48 26 S 1010,3 16 0,0
20.10.2017 22:00:00 13,9 9,1 13,3 26 14 39 21 S 1010,9 - 0,0
20.10.2017 21:00:00 14,1 9,5 13,5 26 14 38 20 S 1011,4 - 0,0
20.10.2017 20:00:00 14,2 9,0 13,5 23 13 40 22 S 1012,0 - 0,0
20.10.2017 19:00:00 14,6 8,5 13,9 17 9 39 21 SW 1012,1 - 0,0
20.10.2017 18:00:00 15,0 8,0 15,3 13 7 48 26 S 1012,3 - 0,0
20.10.2017 17:00:00 15,5 8,0 15,5 19 10 53 29 SSW 1012,4 20 0,0
20.10.2017 16:00:00 15,6 7,4 15,6 17 9 58 32 S 1012,2 - 0,0
20.10.2017 15:00:00 14,6 10,4 15,0 13 7 56 30 SW 1012,4 - 0,0
20.10.2017 14:00:00 14,4 9,8 15,1 21 11 53 29 SW 1012,3 15 0,0
20.10.2017 13:00:00 14,3 8,7 14,9 21 11 67 36 SW 1012,5 - 0,0
20.10.2017 12:00:00 13,9 8,5 14,4 38 20 72 39 WSW 1011,7 - 0,0
20.10.2017 11:00:00 13,5 9,9 12,9 24 13 63 34 SW 1010,9 14 0,0
20.10.2017 10:00:00 12,6 10,3 12,0 22 12 66 35 SW 1009,9 - 0,0
20.10.2017 09:00:00 12,1 10,0 11,1 26 14 80 43 SW 1008,6 - 0,0
20.10.2017 08:00:00 12,3 10,0 11,9 23 12 70 38 SSW 1007,4 15 0,0
20.10.2017 07:00:00 12,2 9,6 11,9 22 12 81 44 SSW 1006,9 - 0,0
20.10.2017 06:00:00 12,4 9,8 11,7 25 14 73 40 S 1005,8 - 0,0
20.10.2017 05:00:00 12,6 10,3 12,1 19 10 63 34 E 1005,3 15 0,0
20.10.2017 04:00:00 13,0 10,4 12,7 23 12 71 38 SW 1005,1 - 0,0
20.10.2017 03:00:00 13,4 10,2 12,9 25 14 70 38 SW 1004,4 - 0,0
20.10.2017 02:00:00 13,8 10,8 13,4 28 15 67 36 SW 1004,3 15 0,0
20.10.2017 01:00:00 13,8 12,9 13,0 16 9 88 47 SSW 1003,4 - 0,4
20.10.2017 00:00:00 14,3 11,8 13,1 47 25 84 45 S 1002,4 - 0,0
19.10.2017 23:00:00 14,2 12,1 13,2 43 23 74 40 S 1002,8 15 3,0
19.10.2017 22:00:00 15,2 12,5 13,7 43 23 82 45 S 1003,5 - 1,8
19.10.2017 21:00:00 16,9 12,2 16,3 44 24 66 36 S 1003,4 - 0,0
19.10.2017 20:00:00 16,8 13,1 16,2 27 14 54 29 S 1003,8 12 0,0
19.10.2017 19:00:00 17,0 12,9 16,4 29 16 54 29 SSW 1004,2 - 0,0
19.10.2017 18:00:00 17,2 13,3 17,0 23 12 54 29 SSW 1004,3 - 0,0
19.10.2017 17:00:00 17,3 13,6 17,1 27 15 45 24 S 1004,2 12 0,0
19.10.2017 16:00:00 17,4 13,3 16,6 23 12 49 26 SW 1004,5 - 0,0
19.10.2017 15:00:00 16,8 14,4 15,8 23 12 56 30 SW 1004,5 - 0,0
19.10.2017 14:00:00 17,8 14,5 17,4 31 17 53 29 SSW 1005,1 12 0,0
19.10.2017 13:00:00 16,9 14,5 17,0 27 14 55 30 SSW 1005,7 - 0,0
19.10.2017 12:00:00 16,8 14,1 17,0 19 11 46 25 SSE 1005,8 - 0,0
19.10.2017 11:00:00 16,0 13,5 14,4 28 15 46 25 SSE 1005,3 20 0,0
19.10.2017 10:00:00 13,9 12,1 13,3 22 12 39 21 ESE 1005,6 - 0,0
19.10.2017 09:00:00 13,4 11,6 12,9 23 13 35 19 ESE 1005,7 - 0,0
19.10.2017 08:00:00 14,1 11,8 13,6 22 12 35 19 ESE 1006,0 10 0,0
19.10.2017 07:00:00 14,8 11,9 14,5 20 11 33 18 E 1006,5 - 0,0
19.10.2017 06:00:00 15,1 12,6 14,6 16 9 29 15 E 1007,0 - 0,0
19.10.2017 05:00:00 15,1 12,8 14,5 16 9 27 14 ENE 1007,7 15 0,0
19.10.2017 04:00:00 15,4 13,2 14,8 12 6 22 12 ENE 1008,4 - 0,0
19.10.2017 03:00:00 15,5 13,5 14,5 11 6 17 9 E 1008,6 - 0,0
19.10.2017 02:00:00 15,3 13,7 14,4 10 5 14 8 ENE 1009,4 15 0,0
19.10.2017 01:00:00 16,9 14,2 15,5 7 4 19 10 S 1009,7 - 0,0
19.10.2017 00:00:00 16,8 14,8 15,2 13 7 17 9 SE 1010,5 - 0,0
18.10.2017 23:00:00 16,8 14,8 15,1 6 3 14 8 ESE 1010,6 10 0,0
18.10.2017 22:00:00 17,2 14,8 15,4 5 3 10 6 SE 1010,4 - 0,0
18.10.2017 21:00:00 18,1 14,8 16,7 8 4 23 12 SSE 1010,4 - 0,0
18.10.2017 20:00:00 18,4 14,9 16,2 10 5 14 8 SE 1010,5 - 0,0
18.10.2017 19:00:00 17,8 14,3 16,3 6 3 17 9 SE 1010,3 - 0,0
18.10.2017 18:00:00 18,6 14,7 18,4 9 5 14 7 S 1010,0 - 0,0
18.10.2017 17:00:00 19,2 15,3 19,7 4 2 11 6 S 1010,0 12 0,0
18.10.2017 16:00:00 18,5 14,8 20,0 7 4 12 7 SSE 1010,3 - 0,0
18.10.2017 15:00:00 18,3 15,0 19,9 6 3 14 8 SSW 1010,6 - 0,0
18.10.2017 14:00:00 18,6 15,1 20,1 9 5 20 11 S 1011,2 12 0,0
18.10.2017 13:00:00 17,3 14,8 16,3 15 8 24 13 SSE 1011,6 - 0,2
18.10.2017 12:00:00 16,1 14,6 15,4 11 6 22 12 SSE 1011,8 - 0,0
18.10.2017 11:00:00 15,7 14,1 15,5 13 7 23 12 SSE 1011,9 10 0,2
18.10.2017 10:00:00 15,5 14,0 15,0 13 7 23 13 SE 1011,6 - 0,2
18.10.2017 09:00:00 15,8 13,6 14,2 13 7 21 12 SE 1011,3 - 0,0
18.10.2017 08:00:00 15,2 13,2 14,2 13 7 21 11 SSE 1011,2 10 0,0
18.10.2017 07:00:00 15,8 13,3 13,6 13 7 19 10 SE 1011,4 - 0,0
18.10.2017 06:00:00 14,8 13,3 13,8 6 4 12 6 E 1011,3 - 0,0
18.10.2017 05:00:00 14,8 13,3 14,2 7 4 16 8 ENE 1011,7 15 0,0
18.10.2017 04:00:00 14,9 13,3 14,2 9 5 31 17 E 1012,2 - 0,0
18.10.2017 03:00:00 15,7 14,4 14,5 15 8 32 17 ESE 1012,7 - 0,0
18.10.2017 02:00:00 15,2 13,6 14,6 20 11 35 19 E 1013,0 15 0,0
18.10.2017 01:00:00 15,6 13,6 14,4 23 13 37 20 E 1013,2 - 0,0
18.10.2017 00:00:00 15,0 13,0 13,4 23 13 37 20 E 1013,8 - 0,0
17.10.2017 23:00:00 13,9 11,8 12,6 22 12 33 18 ENE 1014,5 14 0,0
17.10.2017 22:00:00 13,7 11,2 12,7 7 4 34 18 ENE 1015,4 - 0,0
17.10.2017 21:00:00 13,9 10,9 13,3 20 11 34 19 ENE 1015,5 - 0,0
17.10.2017 20:00:00 14,3 10,9 13,7 14 8 30 16 NE 1016,2 - 0,0
17.10.2017 19:00:00 15,4 11,0 14,7 15 8 29 16 ENE 1016,2 - 0,0
17.10.2017 18:00:00 16,1 11,3 15,9 14 8 28 15 NE 1016,6 - 0,0
17.10.2017 17:00:00 16,6 10,4 17,0 11 6 22 12 ENE 1017,3 - 0,0

tt = Température de l'air
td = dewpoint
tt 5cm = Température de l'air 5cm
ff = Vitesse du vent
fx = gusts
dd = Direction du vent
ppp = reduced air pressure
vv = visibility
rr = Quantités de précipitations

stations d'obs. à proximité